Caldwell, NJ

9:06 PM EDT on October 20, 2019 (GMT -0400)
Essex County

Weather History for KCDW - September, 2019

Change the Weather History Date:

Monday, September 16, 2019

  Actual Average Record
Temperature  
Mean Temperature 71 °F -  
Max Temperature 79 °F 74 °F 89 °F (1993)
Min Temperature 64 °F 50 °F 32 °F (1984)
Cooling Degree Days 6    
Growing Degree Days 21 (Base 50)    
Moisture  
Dew Point 63 °F    
Average Humidity 76    
Maximum Humidity 93    
Minimum Humidity 60    
Precipitation  
Precipitation 0.00 in - - ()
Sea Level Pressure  
Sea Level Pressure 30.07 in    
Wind  
Wind Speed 1 mph ()    
Max Wind Speed 6 mph    
Max Gust Speed -    
Visibility 10.0 miles    
Events Rain    
Averages and records for this station are not official NWS values.
T = Trace of Precipitation, MM = Missing Value Source: Averaged Metar Reports

Daily Weather History Graph

Daily Weather History Graph

Search for Another Location

Airport or City:

Astronomy

Sep. 16, 2019 Rise Set
Actual Time 6:38 AM EDT 7:04 PM EDT
Civil Twilight 6:10 AM EDT 7:32 PM EDT
Nautical Twilight 5:38 AM EDT 8:04 PM EDT
Astronomical Twilight 5:05 AM EDT 8:37 PM EDT
Moon 8:37 PM EDT (9/16) 8:43 AM EDT (9/16)
Length of Visible Light 13h 21m
Length of Day
12h 26m
Waning Gibbous, 94% of the Moon is Illuminated
Sep 16
Waning Gibbous
Sep 21
Last Quarter
Sep 28
New
Oct 5
First Quarter
Oct 13
Full

Hourly Weather History & Observations

Time (EDT) Temp. Dew Point Humidity Pressure Visibility Wind Dir Wind Speed Gust Speed Precip Events Conditions
12:53 AM 64.9 °F 61.0 °F 87% 30.09 in 10.0 mi Calm Calm - N/A   Clear
1:53 AM 64.9 °F 61.0 °F 87% 30.09 in 10.0 mi Calm Calm - N/A   Mostly Cloudy
2:53 AM 66.9 °F 61.0 °F 81% 30.08 in 10.0 mi Calm Calm - N/A   Overcast
3:53 AM 66.9 °F 62.1 °F 84% 30.08 in 10.0 mi Calm Calm - N/A   Overcast
4:53 AM 68.0 °F 61.0 °F 78% 30.08 in 10.0 mi Calm Calm - N/A   Overcast
5:53 AM 68.0 °F 63.0 °F 84% 30.08 in 10.0 mi Calm Calm - 0.00 in Rain Light Rain
6:53 AM 66.9 °F 64.0 °F 90% 30.09 in 10.0 mi Calm Calm - 0.00 in   Overcast
7:53 AM 68.0 °F 64.9 °F 90% 30.10 in 10.0 mi Calm Calm - N/A   Overcast
8:53 AM 70.0 °F 63.0 °F 78% 30.10 in 10.0 mi Calm Calm - N/A   Overcast
9:53 AM 71.1 °F 64.0 °F 78% 30.10 in 10.0 mi Calm Calm - N/A   Overcast
10:53 AM 75.0 °F 62.1 °F 64% 30.09 in 10.0 mi Variable 3.5 mph - N/A   Overcast
11:53 AM 75.9 °F 63.0 °F 64% 30.09 in 10.0 mi Variable 4.6 mph - N/A   Overcast
12:53 PM 75.9 °F 63.0 °F 64% 30.07 in 10.0 mi NE 5.8 mph - N/A   Mostly Cloudy
1:53 PM 77.0 °F 63.0 °F 62% 30.06 in 10.0 mi Variable 4.6 mph - N/A   Partly Cloudy
2:53 PM 78.1 °F 63.0 °F 60% 30.05 in 10.0 mi NNE 4.6 mph - N/A   Overcast
3:53 PM 77.0 °F 62.1 °F 60% 30.04 in 10.0 mi NNW 4.6 mph - N/A   Overcast
4:53 PM 77.0 °F 62.1 °F 60% 30.03 in 10.0 mi Calm Calm - N/A   Overcast
5:53 PM 75.9 °F 63.0 °F 64% 30.03 in 10.0 mi Calm Calm - N/A   Overcast
6:53 PM 75.0 °F 63.0 °F 66% 30.03 in 10.0 mi Calm Calm - N/A   Overcast
7:53 PM 72.0 °F 64.0 °F 76% 30.05 in 10.0 mi Calm Calm - N/A   Mostly Cloudy
8:53 PM 70.0 °F 63.0 °F 78% 30.06 in 10.0 mi Calm Calm - N/A   Clear
9:53 PM 66.9 °F 64.0 °F 90% 30.06 in 10.0 mi Calm Calm - N/A   Clear
10:53 PM 64.9 °F 63.0 °F 93% 30.08 in 9.0 mi Calm Calm - N/A   Clear
11:53 PM 66.9 °F 64.0 °F 90% 30.09 in 10.0 mi Calm Calm - N/A   Partly Cloudy